Starlink 32512

operational
NORAD ID: 62027 Int'l Des: 2024-213 Owner: SPXS Country: US Constellation: starlink
LEOCIRCULAR

About Starlink 32512

Description loading...

Live Position

Loading 3D Globe...

Upcoming Passes

Altitude History

Altitude vs Time

uPlot chart will show altitude changes over time

Two-Line Element Set

1 62027U 24213V 25339.15207979 .00063813 00000-0 21533-2 0 9998
2 62027 53.1606 247.0313 0001489 69.0809 291.0351 15.30122989 58682
Epoch: Dec 5, 2025 • Age: 16 hours

Current Status

Altitude 476.6 km
Velocity 7.63 km/s
Sub-Earth Point -1.23°S, 48.16°E
Launch Date Nov 18, 2024
Age 1 years
Type internet

Technical Details

Classification Payload
Mass 730.00 kg
Dry Mass 700.00 kg
Total Mass 730.00 kg
Length 0.30 m
Diameter 4.10 m
Span 29.00 m
Shape Box + pan
Manufacturer SPXS
Bus Type Starlink V2M
Phase Status In Orbit
Owner/State SPXS/US

Large Constellations

Loading constellations...